www.pogodaiklimat.ru
ПОГОДА в Амбале
Время
(UTC), дата
00 24.03
03 24.03
06 24.03
09 24.03
12 24.03
15 24.03
18 24.03
21 24.03
00 25.03
03 25.03
06 25.03
09 25.03
12 25.03
15 25.03
18 25.03
21 25.03
00 26.03
03 26.03
06 26.03
12 26.03
18 26.03
21 26.03
00 27.03
03 27.03
06 27.03
09 27.03
12 27.03
15 27.03
18 27.03
21 27.03
00 28.03
03 28.03
06 28.03
09 28.03
12 28.03
15 28.03
18 28.03
21 28.03
00 29.03
03 29.03
06 29.03
09 29.03
12 29.03
15 29.03
18 29.03
21 29.03
00 30.03
03 30.03
06 30.03
09 30.03
12 30.03
15 30.03
18 30.03
21 30.03
Ветер
(напр.,м/с)
Видим. Явления Облачность Т
(С)
Тd
(С)
f
(%)
Тe
(С)
Тes
(С)
Комфортность P
(гПа)
Po
(гПа)
Тmin
(С)
Tmax
(С)
R
(мм)
R24
(мм)
S
(см)
штиль 0 2000 м мгла {дождь} 8/5 750 м
[Sc Ac trans]
+19.4 +16.1 81 +21 +21 комфорт 1010.6 979.0 0.0
штиль 0 2000 м мгла 6/0
[Ac trans]
+20.2 +16.6 80 +23 +27 комфорт 1012.5 980.9 +17.4 +29.7 0.0
ЮВ 1 2000 м мгла 9/5 750 м
[Sc Ac trans]
+27.8 +16.2 49 +31 +36 душно 1012.8 982.0
штиль 0 2000 м мгла 9/5 750 м
[Sc Ac trans]
+27.4 +18.7 59 +32 +37 очень
душно
1010.6 979.8
С 2 2000 м мгла 8/3 750 м
[Sc Ac trans]
+23.8 +16.6 64 +27 +28 жарко 1010.5 979.4 +28.6
штиль 0 2000 м мгла 8/3 750 м
[Sc Ac trans]
+22.2 +15.2 65 +26 +26 душно 1010.4 979.1
ЮВ 1 2000 м в посл. час гроза {дождь} 9/6 750 м
[Cb cap Ac trans]
+20.6 +15.9 74 +25 +25 комфорт 1011.7 980.2 0.0
ЮВ 1 2000 м мгла {гроза} 6/3 750 м
[Sc Ac trans]
+20.0 +16.4 80 +24 +24 комфорт 1011.2 979.6 0.0
штиль 0 2000 м мгла {гроза} 1/0
[Ac trans]
+19.0 +16.3 84 +20 +20 1011.4 979.7 0.0
штиль 0 2000 м мгла 1/0
[Ac trans]
+21.2 +17.0 77 +25 +31 комфорт 1013.2 981.7 +16.8 +28.6 0.0
штиль 0 2000 м мгла 5/0
[Ac trans]
+27.0 +16.7 53 +31 +46 душно 1013.7 982.8
С 2 2000 м мгла 5/0
[Ac trans Ci fib]
+29.0 +17.3 49 +33 +44 очень
душно
1011.2 980.6
З 3 4000 м мгла 8/0
[Ac trans Ci fib]
+28.8 +15.5 44 +32 +32 душно 1010.8 980.2 +30.3
СЗ 1 4000 м мгла 4/0
[Ci fib]
+23.6 +18.6 74 +28 +28 душно 1011.4 980.2
СЗ 2 2000 м мгла 5/0
[Ci fib]
+22.4 +17.9 76 +27 +27 душно 1011.4 980.1
СЗ 1 2000 м дымка 6/0
[Ac trans]
+20.6 +17.4 82 +25 +25 комфорт 1011.4 979.9
СЗ 2 2000 м дымка 6/0
[Ac trans]
+18.6 +16.6 88 +20 +20 1011.3 979.6
З 2 2000 м дымка 6/0
[Ac trans Ci fib]
+19.6 +16.8 84 +22 +26 комфорт 1012.6 981.0 +17.1 +30.3
З 3 2000 м мгла 8/0
[Ac trans]
+25.8 +17.2 59 +30 +38 душно 1013.5 982.5
СЗ 1 2000 м мгла 9/8 600 м
[Sc diur, vesp Ac trans]
+26.2 +15.7 52 +29 +29 жарко 1012.2 981.3 +28.8
штиль 0 2000 м мгла 5/0
[Ac trans]
+21.2 +17.0 77 +25 +25 комфорт 1014.3 982.8
штиль 0 2000 м дымка 4/0
[Ac trans]
+19.6 +16.6 83 +22 +22 комфорт 1013.6 981.9
штиль 0 2000 м дымка 8/6 750 м
[Sc diur, vesp Ac trans]
+19.2 +17.2 88 +21 +21 комфорт 1014.2 982.5
штиль 0 2000 м дымка 10/8 600 м
[Sc diur, vesp As op]
+19.8 +17.9 89 +22 +23 комфорт 1015.6 983.9 +18.0 +28.8 0.2
ЮВ 1 2000 м дымка 8/6 750 м
[Sc diur, vesp Ac trans]
+21.4 +18.2 82 +26 +31 душно 1016.3 984.7 0.3
ЮВ 4 2000 м мгла 9/6 750 м
[Sc Ac trans]
+22.8 +15.5 63 +27 +29 душно 1012.9 981.6 0.3
ЮВ 1 2000 м слаб. дождь 10/8 750 м
[Sc As op]
+23.8 +18.1 70 +28 +28 душно 1012.0 980.8 +25.6 0.8
ЮВ 2 2000 м мгла {дождь} 8/4 750 м
[Sc Ac trans]
+17.6 +16.9 96 +18 +18 1014.4 982.5 7
ЮВ 2 2000 м мгла {дождь} 6/3 750 м
[Sc Ac trans]
+18.2 +15.1 82 +19 +19 1016.2 984.3 7
штиль 0 2000 м мгла 4/0
[Ac trans]
+17.6 +15.2 86 +18 +18 1016.5 984.5 7
штиль 0 2000 м мгла 3/0
[Ac trans]
+16.0 +14.6 91 +16 +16 1016.8 984.6
штиль 0 4000 м ясно +18.4 +16.1 86 +19 +26 1017.9 986.0 +14.1 +25.6 7
СЗ 1 4000 м ясно +24.8 +15.6 57 +28 +48 жарко 1017.1 985.9
СЗ 1 4000 м ясно +27.0 +13.9 45 +29 +45 жарко 1013.7 982.8
З 3 4000 м ясно +26.0 +15.1 51 +29 +30 душно 1012.2 981.2 +28.0
СЗ 1 4000 м ясно +22.4 +16.5 69 +27 +27 душно 1013.8 982.4
СЗ 2 4000 м ясно +20.4 +16.1 76 +24 +24 комфорт 1014.0 982.4
СЗ 2 4000 м ясно +18.6 +15.6 83 +20 +20 1012.1 980.4
СЗ 3 4000 м ясно +17.4 +15.4 88 +18 +18 1012.4 980.5
СЗ 2 4000 м ясно +20.8 +15.4 71 +25 +30 комфорт 1013.6 982.0 +15.9 +28.0
СЗ 3 4000 м ясно +26.4 +10.4 37 +27 +41 жарко 1013.4 982.4
З 5 4000 м ясно +28.2 +11.1 35 +29 +36 жарко 1011.4 980.7
З 4 4000 м 1/1 1050 м
[Cu hum]
+26.4 +13.6 45 +28 +29 жарко 1011.0 980.1 +28.8
З 2 4000 м ясно +22.0 +14.9 64 +25 +25 комфорт 1013.0 981.6
СЗ 2 4000 м ясно +20.2 +15.5 74 +24 +24 комфорт 1014.4 982.8
СЗ 3 4000 м ясно +19.0 +14.6 76 +21 +21 комфорт 1012.3 980.6
СЗ 1 4000 м ясно +17.0 +13.5 80 +18 +18 1012.6 980.7
СЗ 2 2000 м мгла 4/0
[Ci fib]
+18.6 +14.5 77 +20 +25 1013.4 981.6 +14.9 +28.8
СЗ 3 2000 м мгла 8/0
[Ac trans Ci fib]
+26.0 +14.7 50 +29 +39 душно 1013.6 982.6
СЗ 1 4000 м ясно +29.4 +11.9 34 +30 +46 жарко 1012.1 981.5
СЗ 3 2000 м мгла 6/0
[Ac trans]
+27.6 +14.3 44 +30 +31 жарко 1010.9 980.1 +29.4
СЗ 1 2000 м мгла ясно +23.0 +13.8 56 +26 +26 жарко 1012.4 981.1
СЗ 2 2000 м мгла ясно +20.6 +14.5 68 +24 +24 комфорт 1013.4 981.8
СЗ 1 2000 м мгла ясно +19.2 +14.4 74 +22 +22 комфорт 1012.1 980.4
Местоположение метеостанции Амбала (Харьяна, Индия): широта 30.37 долгота 76.75 высота над уровнем моря 272 м.
В архиве по умолчанию представлена погода в Амбале за последнюю неделю. Архивные данные за месяц целиком и за предыдущие месяцы, начиная с января 2011 года, Вы можете получить, выбрав интересующий диапазон дат из раскрывающегося списка и нажав кнопку "Найти!".
*Определитесь, кто Вы:
Внимание! Время в таблицах - всемирное. Для получения местного времени необходимо прибавить поправку, которая равна 5.5 ч.
Смотрите также архив погоды в соседних городах и на ближайших метеорологических станциях:
Партнеры нашего сайта:      
Пояснения к столбцам:
  • Ветер - указаны скорость ветра в м/с - средняя за 10 мин, порывы в срок и между сроками (в фигурных скобках) и направление, откуда дует ветер: С - северный,
  • СВ - северо-восточный, В - восточный, ЮВ - юго-восточный, Ю - южный, ЮЗ - юго-западный, З - западный, СЗ - северо-западный.
  • Видимость - горизонтальная дальность видимости в метрах или километрах. При видимости от 1 до 10 км при отсутствии осадков обычно наблюдается дымка, при ухудшении видимости до 1 км и менее - туман. В сухую погоду видимость может ухудшаться дымом, пылью или мглою.
  • Явления - указаны атмосферные явления, наблюдавшиеся в срок или в последний час перед сроком; фигурными скобками обозначены явления, наблюдавшиеся между сроками (за 1-3 часа до срока); квадратными скобками обозначены град или гололедные отложения с указанием их диаметра в мм.
  • Облачность - указаны через наклонную черту общая и нижняя облачность в баллах и высота нижней границы облаков в метрах; квадратными скобками обозначены формы облаков: Ci - перистые, Cs - перисто-слоистые, Cc - перисто-кучевые, Ac - высококучевые, As - высокослоистые, Sc - слоисто-кучевые, Ns - слоисто-дождевые, Cu - кучевые, Cb - кучево-дождевые. Подробнее классификацию облаков см. в Атласе облаков (PDF).
  • T - Температура воздуха - температура, измеренная на высоте 2 м над землей.
  • Td - Температура точки росы - температура, при понижении до которой содержащийся в воздухе водяной пар достигнет насыщения.
  • f - Относительная влажность воздуха - влажноcть воздуха, измеренная на высоте 2 м над землей.
  • Te - Эффективная температура - температура, которую ощущает одетый по сезону человек в тени. Характеристика душности погоды. При расчете учитывается влияние влажности воздуха и скорости ветра на теплоощущения человека.
  • Tes - Эффективная температура на солнце - температура, которую ощущает человек, с поправкой на солнечный нагрев. Характеристика знойности погоды. Зависит от высоты солнца над горизонтом, облачности и скорости ветра. Ночью, в пасмурную погоду, а также при ветре 12 м/с и более поправка равна нулю.
  • P - Атмосферное давление - приведенное к уровню моря атмосферное давление.
  • Po - Атмосферное давление - измеренное на уровне метеостанции атмосферное давление.
  • Tmin - Минимальная температура - минимум температуры воздуха на высоте 2 м над землей.
  • Tmax - Максимальная температура - максимум температуры воздуха на высоте 2 м над землей.
  • R - Количество осадков - Количество выпавших осадков за период времени, мм. При наведении курсора мыши на число - период времени, за который выпало указанное количество осадков.
  • R24 - Количество осадков - Количество выпавших осадков за 24 часа, мм.
  • S - Снежный покров - Высота снежного покрова, см. При наведении курсора мыши на число - состояние снежного покрова и степень покрытия местности в баллах.